Weather reports worldwide

Advertisment
Bujaraloz, Spain (8165): temperature & dewpoint: 17.08.2019 14:00:00 - 23.08.2019 14:00:00 (CEST)Bujaraloz, Spain (8165): wind speed & gusts: 17.08.2019 14:00:00 - 23.08.2019 14:00:00 (CEST)Bujaraloz, Spain (8165): wind direction: 17.08.2019 14:00:00 - 23.08.2019 14:00:00 (CEST)Bujaraloz, Spain (8165): reduced air pressure: 17.08.2019 14:00:00 - 23.08.2019 14:00:00 (CEST)Bujaraloz, Spain (8165): visibility: 17.08.2019 14:00:00 - 23.08.2019 14:00:00 (CEST)Bujaraloz, Spain (8165): sunshine duration: 17.08.2019 14:00:00 - 23.08.2019 14:00:00 (CEST)Bujaraloz, Spain (8165): precipitation: 17.08.2019 14:00:00 - 23.08.2019 14:00:00 (CEST)
Date & Time tt [°C] td [°C] ff [km/h] ff [kn] fx [km/h] fx [kn] dd ppp [hPa] vv [km] sd [min] rr [mm]
23.08.2019 14:00:00 - - - - - - - - - - -
23.08.2019 13:00:00 26,6 16,8 6 4 12 6 NE 1018,1 20 60 0,0
23.08.2019 12:00:00 24,1 17,1 7 4 11 6 NE 1018,9 20 60 0,0
23.08.2019 11:00:00 22,3 16,3 7 4 14 8 WNW 1019,4 20 53 0,0
23.08.2019 10:00:00 20,4 13,9 11 6 18 10 W 1019,6 20 60 0,0
23.08.2019 09:00:00 18,3 13,0 16 8 21 11 W 1019,7 20 60 0,0
23.08.2019 08:00:00 17,2 12,7 9 5 14 8 SSW 1019,2 20 9 -
23.08.2019 07:00:00 18,1 12,5 13 7 19 11 W 1018,7 20 0 0,0
23.08.2019 06:00:00 18,1 12,7 15 8 17 9 W 1018,5 20 0 0,0
23.08.2019 05:00:00 19,5 15,8 4 2 11 6 SSW 1018,3 20 0 0,0
23.08.2019 04:00:00 20,9 16,7 9 5 14 8 SE 1018,4 20 0 0,0
23.08.2019 03:00:00 21,5 16,0 6 4 12 6 ESE 1018,3 20 0 0,0
23.08.2019 02:00:00 21,5 14,6 7 4 11 6 E 1018,3 20 0 -
23.08.2019 01:00:00 22,6 13,7 9 5 16 9 E 1017,9 20 0 0,0
23.08.2019 00:00:00 22,0 12,5 11 6 16 9 NE 1017,8 20 0 0,0
22.08.2019 23:00:00 25,2 10,3 11 6 15 8 SSE 1017,3 20 0 0,0
22.08.2019 22:00:00 26,9 9,3 9 5 11 6 SSE 1016,8 20 0 0,0
22.08.2019 21:00:00 28,4 8,7 6 3 9 5 SSW 1015,9 20 25 0,0
22.08.2019 20:00:00 30,2 8,5 6 3 21 11 W 1015,7 20 60 -
22.08.2019 19:00:00 30,1 8,5 12 6 21 11 WNW 1015,8 20 60 0,0
22.08.2019 18:00:00 30,7 9,0 11 6 - - WNW 1016,2 20 60 0,0
22.08.2019 17:00:00 29,2 8,3 18 10 30 16 WNW 1016,7 20 60 0,0
22.08.2019 16:00:00 28,7 10,9 14 7 - - NW 1017,2 20 60 0,0
22.08.2019 15:00:00 27,7 12,1 9 5 28 15 NW 1017,9 20 60 0,0
22.08.2019 14:00:00 26,7 12,0 12 7 27 15 WNW 1018,5 20 60 -
22.08.2019 13:00:00 24,9 11,4 16 8 30 16 NW 1019,5 20 60 0,0
22.08.2019 12:00:00 22,8 11,8 21 11 35 19 WNW 1019,9 20 60 0,0
22.08.2019 11:00:00 21,8 11,4 22 12 32 17 W 1020,0 20 51 0,0
22.08.2019 10:00:00 20,5 11,1 19 11 29 16 W 1020,1 20 60 0,0
22.08.2019 09:00:00 18,8 11,9 10 5 21 11 W 1020,2 20 60 0,0
22.08.2019 08:00:00 18,8 11,1 16 9 24 13 WSW 1019,4 20 9 -
22.08.2019 07:00:00 18,9 11,9 18 10 22 12 WSW 1019,0 20 0 0,0
22.08.2019 06:00:00 19,6 12,6 17 9 32 17 WSW 1018,8 20 0 0,0
22.08.2019 05:00:00 19,5 12,7 25 13 41 22 W 1018,6 20 0 0,0
22.08.2019 04:00:00 20,1 14,0 35 19 43 23 W 1018,0 20 0 0,0
22.08.2019 03:00:00 20,4 16,2 23 12 29 16 WNW 1017,9 20 0 0,0
22.08.2019 02:00:00 20,7 16,1 19 10 21 11 W 1017,9 20 0 -
22.08.2019 01:00:00 22,6 15,4 15 8 16 9 WSW 1017,7 20 0 0,0
22.08.2019 00:00:00 22,6 16,1 10 5 18 10 SSW 1017,8 20 0 0,0
21.08.2019 23:00:00 23,4 16,9 10 5 14 8 SSW 1017,1 20 0 0,0
21.08.2019 22:00:00 24,1 17,6 6 3 18 10 SSE 1016,8 20 0 0,0
21.08.2019 21:00:00 24,6 16,8 17 9 19 11 WSW 1016,0 20 0 0,0
21.08.2019 20:00:00 25,2 16,9 14 8 19 11 WSW 1015,4 20 0 -
21.08.2019 19:00:00 25,9 16,5 11 6 18 10 WNW 1015,1 20 0 0,0
21.08.2019 18:00:00 26,7 16,0 5 3 6 4 WNW 1015,6 20 0 0,0
21.08.2019 17:00:00 27,0 15,1 4 2 10 5 NNE 1015,7 20 4 0,0
21.08.2019 16:00:00 28,2 15,5 3 2 12 7 NE 1015,7 20 53 0,0
21.08.2019 15:00:00 27,1 14,8 9 5 18 10 NNW 1016,8 20 60 0,0
21.08.2019 14:00:00 25,4 14,5 10 5 17 9 WNW 1017,6 20 60 -
21.08.2019 13:00:00 24,2 14,0 6 3 19 10 N 1018,6 20 60 0,0
21.08.2019 12:00:00 22,2 13,6 12 6 21 12 NNW 1019,4 20 60 0,0
21.08.2019 11:00:00 21,3 13,5 13 7 21 11 NW 1019,8 20 60 0,0
21.08.2019 10:00:00 19,3 13,7 16 9 24 13 WNW 1020,1 20 36 0,0
21.08.2019 09:00:00 18,5 13,8 15 8 19 11 W 1020,3 20 28 0,0
21.08.2019 08:00:00 17,7 13,9 14 7 16 9 WSW 1020,2 20 6 -
21.08.2019 07:00:00 17,5 13,9 13 7 18 10 W 1020,2 20 0 0,0
21.08.2019 06:00:00 18,0 13,9 15 8 21 11 W 1020,0 20 0 0,0
21.08.2019 05:00:00 18,5 13,9 16 8 19 10 WNW 1020,3 20 0 0,0
21.08.2019 04:00:00 18,6 14,7 13 7 17 9 W 1020,2 20 0 0,0
21.08.2019 03:00:00 19,0 15,1 14 8 21 11 WNW 1020,2 20 0 0,0
21.08.2019 02:00:00 19,2 18,0 10 5 13 7 NW 1020,2 20 0 -
21.08.2019 01:00:00 19,8 17,2 5 3 8 4 NE 1020,1 20 0 0,0
21.08.2019 00:00:00 20,8 16,4 2 1 8 4 NW 1020,0 20 0 0,0
20.08.2019 23:00:00 20,7 17,3 7 4 9 5 S 1019,8 20 0 0,0
20.08.2019 22:00:00 21,3 17,1 6 3 11 6 S 1019,5 20 0 0,0
20.08.2019 21:00:00 21,7 16,9 8 5 17 9 S 1019,3 20 21 0,0
20.08.2019 20:00:00 22,2 16,9 7 4 17 9 SE 1018,8 20 60 -
20.08.2019 19:00:00 22,2 16,2 8 4 14 8 S 1018,6 20 60 0,0
20.08.2019 18:00:00 22,1 17,1 5 3 13 7 S 1019,1 20 60 0,0
20.08.2019 17:00:00 20,8 17,1 5 3 11 6 W 1019,8 20 58 0,0
20.08.2019 16:00:00 18,5 17,1 7 4 20 11 SW 1020,1 20 13 0,2
20.08.2019 15:00:00 16,9 16,2 16 9 27 15 W 1020,6 15 0 0,4
20.08.2019 14:00:00 17,2 15,9 18 10 29 16 W 1020,4 19 0 -
20.08.2019 13:00:00 16,6 16,1 24 13 39 21 W 1020,5 19 0 0,8
20.08.2019 12:00:00 16,1 16,0 28 15 39 21 W 1020,3 6 0 6,2
20.08.2019 11:00:00 16,5 16,3 20 11 27 14 W 1019,2 3,1 0 0,8
20.08.2019 10:00:00 16,6 16,3 18 10 29 15 W 1018,5 11 0 0,4
20.08.2019 09:00:00 17,1 16,6 25 13 30 16 W 1017,8 13 0 0,0
20.08.2019 08:00:00 16,9 16,1 15 8 28 15 WSW 1016,8 20 0 -
20.08.2019 07:00:00 17,2 15,5 23 13 39 21 WNW 1016,7 20 0 0,0
20.08.2019 06:00:00 17,6 15,6 29 16 38 20 WNW 1016,3 20 0 0,0
20.08.2019 05:00:00 18,2 15,8 26 14 39 21 W 1015,9 20 0 0,0
20.08.2019 04:00:00 19,5 15,2 29 16 41 22 W 1015,1 20 0 0,0
20.08.2019 03:00:00 20,3 15,7 29 16 39 21 WNW 1014,8 20 0 0,0
20.08.2019 02:00:00 21,6 14,5 26 14 36 20 W 1014,9 20 0 -
20.08.2019 01:00:00 22,3 13,7 29 16 36 19 W 1014,6 20 0 0,0
20.08.2019 00:00:00 23,2 13,4 25 13 31 17 W 1014,4 20 0 0,0
19.08.2019 23:00:00 24,4 12,6 25 13 34 19 W 1014,2 20 0 0,0
19.08.2019 22:00:00 25,4 20,2 16 9 26 14 SE 1013,4 20 0 0,0
19.08.2019 21:00:00 26,7 19,8 16 9 32 17 SE 1012,9 20 0 0,0
19.08.2019 20:00:00 27,5 19,3 23 13 35 19 SE 1012,0 20 0 -
19.08.2019 19:00:00 29,1 19,4 18 10 34 18 ESE 1012,0 20 0 0,0
19.08.2019 18:00:00 30,2 19,3 22 12 - - ESE 1011,5 20 27 0,0
19.08.2019 17:00:00 30,1 16,1 16 9 27 14 NNE 1012,0 20 60 0,0
19.08.2019 16:00:00 29,2 14,6 13 7 22 12 NE 1012,9 20 60 0,0
19.08.2019 15:00:00 28,4 13,9 10 5 16 9 ENE 1013,6 20 60 0,0
19.08.2019 14:00:00 27,4 13,8 8 4 20 11 W 1014,0 20 60 -
19.08.2019 13:00:00 24,9 13,2 11 6 32 18 WNW 1014,7 20 60 0,0
19.08.2019 12:00:00 23,5 12,7 17 9 31 17 WNW 1015,1 20 60 0,0
19.08.2019 11:00:00 22,5 12,7 21 12 38 20 WNW 1015,2 20 51 0,0
19.08.2019 10:00:00 21,4 12,5 23 12 45 25 W 1014,8 20 59 0,0
19.08.2019 09:00:00 20,5 12,7 31 17 45 25 WNW 1014,8 20 49 0,0
19.08.2019 08:00:00 19,6 12,6 29 16 39 21 WNW 1014,6 20 10 -
19.08.2019 07:00:00 19,7 12,7 27 14 35 19 WNW 1013,9 20 0 0,0
19.08.2019 06:00:00 20,0 13,3 20 11 45 24 W 1013,4 20 0 0,0
19.08.2019 05:00:00 20,6 13,6 34 19 53 28 WNW 1013,2 20 0 0,0
19.08.2019 04:00:00 21,5 14,1 39 21 50 27 WNW 1012,9 20 0 0,0
19.08.2019 03:00:00 22,5 14,9 31 17 46 25 W 1012,8 20 0 0,0
19.08.2019 02:00:00 23,5 15,5 35 19 49 27 W 1011,8 20 0 -
19.08.2019 01:00:00 24,7 15,9 30 16 45 24 W 1011,1 20 0 0,0
19.08.2019 00:00:00 25,9 16,5 32 18 46 25 WNW 1009,7 20 0 0,0
18.08.2019 23:00:00 26,6 21,1 14 8 27 15 NE 1008,2 20 0 0,0
18.08.2019 22:00:00 28,3 20,3 14 8 25 14 E 1006,4 20 0 0,0
18.08.2019 21:00:00 29,3 21,0 21 11 35 19 ESE 1005,8 20 36 0,0
18.08.2019 20:00:00 31,6 20,3 23 12 38 20 ESE 1005,2 20 46 -
18.08.2019 19:00:00 32,9 19,4 26 14 44 24 ESE 1005,4 20 18 0,0
18.08.2019 18:00:00 35,0 16,8 23 12 38 21 ESE 1005,6 20 33 0,0
18.08.2019 17:00:00 37,1 17,1 20 11 - - ESE 1005,5 20 60 0,0
18.08.2019 16:00:00 36,7 17,3 16 9 32 17 E 1006,2 20 60 0,0
18.08.2019 15:00:00 36,6 16,2 18 10 29 15 ENE 1006,8 20 60 0,0
18.08.2019 14:00:00 34,4 17,6 13 7 18 10 NE 1007,8 20 60 -
18.08.2019 13:00:00 31,8 19,1 11 6 16 9 NE 1008,8 20 60 0,0
18.08.2019 12:00:00 29,8 20,1 8 4 16 8 ENE 1009,5 20 60 0,0
18.08.2019 11:00:00 27,9 19,9 4 2 12 7 ESE 1009,6 20 49 0,0
18.08.2019 10:00:00 26,6 20,2 7 4 12 6 SSE 1009,5 20 60 0,0
18.08.2019 09:00:00 24,5 19,6 6 3 18 10 ESE 1009,3 20 60 0,0
18.08.2019 08:00:00 23,7 20,5 14 8 19 10 ENE 1008,8 20 15 -
18.08.2019 07:00:00 23,5 19,8 14 7 18 10 ENE 1008,4 20 0 0,0
18.08.2019 06:00:00 23,8 19,5 13 7 18 10 E 1008,3 20 0 0,0
18.08.2019 05:00:00 24,0 18,6 13 7 19 11 E 1008,6 20 0 0,0
18.08.2019 04:00:00 24,1 19,6 16 9 21 11 E 1008,9 20 0 0,0
18.08.2019 03:00:00 24,3 19,8 12 7 16 9 E 1009,2 20 0 0,0
18.08.2019 02:00:00 24,6 20,1 12 6 21 11 E 1009,4 20 0 -
18.08.2019 01:00:00 24,9 20,4 16 9 25 13 E 1009,2 20 0 0,0
18.08.2019 00:00:00 25,5 20,5 15 8 27 14 E 1009,2 20 0 0,0
17.08.2019 23:00:00 26,2 20,3 15 8 29 16 ESE 1009,1 20 0 0,0
17.08.2019 22:00:00 27,0 20,1 16 8 34 18 E 1008,8 20 0 0,0
17.08.2019 21:00:00 28,2 20,5 13 7 37 20 E 1008,6 20 43 0,0
17.08.2019 20:00:00 30,8 20,1 19 11 34 18 ESE 1008,3 20 60 -
17.08.2019 19:00:00 32,2 19,8 19 10 36 20 ESE 1008,4 20 31 0,0
17.08.2019 18:00:00 33,6 18,9 27 15 39 21 ESE 1008,5 20 50 0,0
17.08.2019 17:00:00 35,5 18,5 22 12 - - ESE 1008,6 20 60 0,0
17.08.2019 16:00:00 35,2 17,9 11 6 17 9 NE 1009,1 20 60 0,0
17.08.2019 15:00:00 34,4 18,0 6 3 14 7 ENE 1010,4 20 60 0,0
17.08.2019 14:00:00 31,7 17,9 8 4 13 7 ENE 1011,5 20 60 -

tt = temperature
td = dewpoint
ff = wind speed
fx = gusts
dd = wind direction
ppp = reduced air pressure
vv = visibility
sd = sunshine duration
rr = precipitation

Next stations